Bradshaw AFB, HI

6:22 PM HST on April 29, 2017 (GMT -1000)
Bradshaw Army Air Field

Weather History for PHSF - January, 2014

Change the Weather History Date:

Monday, January 27, 2014

  Actual Average Record
Temperature  
Mean Temperature 56 °F -  
Max Temperature 71 °F 63 °F 75 °F (2016)
Min Temperature 42 °F 42 °F 30 °F (1998)
Degree Days  
Heating Degree Days 8    
Growing Degree Days 6 (Base 50)    
Moisture  
Dew Point -    
Average Humidity    
Maximum Humidity    
Minimum Humidity    
Precipitation  
Precipitation 0.00 in - - ()
Sea Level Pressure  
Sea Level Pressure 30.03 in    
Wind  
Wind Speed 5 mph (West)    
Max Wind Speed 13 mph    
Max Gust Speed 21 mph    
Visibility 9 miles    
Events Fog    
Averages and records for this station are not official NWS values.
T = Trace of Precipitation, MM = Missing Value Source: NWS Daily Summary

Daily Weather History Graph

Daily Weather History Graph

Search for Another Location

Airport or City:

Trip Planner

Search our weather history database for the weather conditions in past years. The results will help you decide how hot, cold, wet, or windy it might be!

Date:

Astronomy

Jan. 27, 2014 Rise Set
Actual Time 6:58 AM HST 6:11 PM HST
Civil Twilight 6:35 AM HST 6:34 PM HST
Nautical Twilight 6:08 AM HST 7:01 PM HST
Astronomical Twilight 5:42 AM HST 7:27 PM HST
Moon 3:45 AM HST (1/27) 3:14 PM HST (1/27)
Length of Visible Light 11h 59m
Length of Day
11h 13m
Waning Crescent, 13% of the Moon is Illuminated
Jan 27
Waning Crescent
Jan 30
New
Feb 6
First Quarter
Feb 14
Full
Feb 22
Last Quarter

Hourly Weather History & Observations

Time (HST) Temp. Windchill Dew Point Humidity Pressure Visibility Wind Dir Wind Speed Gust Speed Precip Events Conditions
12:56 AM 48.2 °F - - N/A% 29.87 in 12.0 mi NNW 2.3 mph - N/A   Clear
1:56 AM 48.2 °F - - N/A% 29.87 in 12.0 mi North 4.6 mph - N/A   Clear
2:56 AM 42.8 °F 40.1 °F - N/A% 29.89 in 12.0 mi North 4.6 mph - N/A   Clear
3:56 AM 51.8 °F - - N/A% 29.85 in 12.0 mi West 3.5 mph - N/A   Clear
4:56 AM 53.6 °F - - N/A% 29.85 in 12.0 mi West 2.3 mph - N/A   Clear
5:56 AM 55.4 °F - - N/A% 29.89 in 12.0 mi NW 6.9 mph - N/A   Clear
6:56 AM 53.6 °F - - N/A% 29.93 in 12.0 mi WNW 4.6 mph - N/A   Clear
7:56 AM 60.8 °F - - N/A% 29.94 in 12.0 mi West 6.9 mph - N/A   Clear
8:56 AM 66.2 °F - - N/A% 29.94 in 12.0 mi SW 8.1 mph - N/A   Clear
9:56 AM 69.8 °F - - N/A% 29.94 in 12.0 mi West 9.2 mph - N/A   Clear
10:56 AM 69.8 °F - - N/A% 29.94 in 12.0 mi West 12.7 mph 17.3 mph N/A   Clear
11:56 AM 71.6 °F - - N/A% 29.91 in 12.0 mi West 9.2 mph 20.7 mph N/A   Clear
12:56 PM 69.8 °F - - N/A% 29.89 in 12.0 mi West 8.1 mph 18.4 mph N/A   Clear
1:56 PM 69.8 °F - - N/A% 29.86 in 12.0 mi West 8.1 mph 17.3 mph N/A   Clear
2:56 PM 69.8 °F - - N/A% 29.87 in 12.0 mi West 10.4 mph 18.4 mph N/A   Clear
3:56 PM 66.2 °F - - N/A% 29.86 in 12.0 mi WSW 10.4 mph - N/A   Clear
4:56 PM 62.6 °F - - N/A% 29.89 in 12.0 mi West 8.1 mph - N/A   Clear
5:56 PM 59.0 °F - - N/A% 29.90 in 9.0 mi West 6.9 mph - N/A   Clear
6:56 PM 55.4 °F - - N/A% 29.93 in 4.0 mi West 3.5 mph - N/A   Scattered Clouds
7:01 PM 55.4 °F - - N/A% 30.25 in 4.0 mi West 2.3 mph - N/A   Mostly Cloudy
7:06 PM 55.4 °F - - N/A% 30.25 in 2.0 mi West 2.3 mph - N/A   Mostly Cloudy
7:11 PM 55.4 °F - - N/A% 30.25 in 0.4 mi West 1.2 mph - N/A Fog Fog
7:41 PM 55.4 °F - - N/A% 30.26 in 1.5 mi WSW 1.2 mph - N/A   Mostly Cloudy
7:46 PM 55.4 °F - - N/A% 30.27 in 2.5 mi WSW 1.2 mph - N/A   Mostly Cloudy
7:56 PM 55.4 °F - - N/A% 29.94 in 2.8 mi North 3.5 mph - N/A   Overcast
8:01 PM 55.4 °F - - N/A% 30.27 in 3.0 mi ESE 2.3 mph - N/A   Mostly Cloudy
8:06 PM 55.4 °F - - N/A% 30.27 in 4.0 mi East 4.6 mph - N/A   Mostly Cloudy
8:16 PM 55.4 °F - - N/A% 30.27 in 6.0 mi East 2.3 mph - N/A   Mostly Cloudy
8:21 PM 53.6 °F - - N/A% 30.27 in 6.0 mi East 1.2 mph - N/A   Scattered Clouds
8:56 PM 51.8 °F - - N/A% 29.96 in 9.0 mi NNE 4.6 mph - N/A   Partly Cloudy
9:06 PM 53.6 °F - - N/A% 30.29 in 9.0 mi NNE 1.2 mph - N/A   Mostly Cloudy
9:41 PM 55.4 °F - - N/A% 30.29 in 9.0 mi NNE 3.5 mph - N/A   Mostly Cloudy
9:51 PM 53.6 °F - - N/A% 30.29 in 9.0 mi ESE 2.3 mph - N/A   Mostly Cloudy
9:56 PM 51.8 °F - - N/A% 29.96 in 8.0 mi ESE 2.3 mph - N/A   Mostly Cloudy
10:11 PM 51.8 °F - - N/A% 30.30 in 9.0 mi ESE 3.5 mph - N/A   Scattered Clouds
10:56 PM 51.8 °F - - N/A% 29.94 in 11.0 mi ESE 3.5 mph - N/A   Partly Cloudy
11:56 PM 50.0 °F - - N/A% 29.92 in 12.0 mi East 5.8 mph - N/A   Clear